Lid_Strength_Index
2 2 2 2 1 1 1 1 1 1 1 2 2 2 2 2 2 2 2 3 3 2 2 2 2 2 2 3 3 3 3 3 4 4 5 7 9 8 9 9 9 9 9
3 2 2 2 2 2 2 1 1 1 1 1 2 2 2 2 2 3 3 3 3 3 3 2 2 3 3 3 4 3 3 3 4 4 7 9 9 9 9 10 10 10 10
5 3 2 2 2 2 2 1 1 1 1 1 2 2 2 2 2 2 2 3 3 3 3 3 3 3 3 4 4 4 4 3 4 5 8 10 11 11 12 12 11 12 11
6 5 4 2 2 2 1 1 2 1 2 2 2 2 2 2 2 3 2 3 3 3 3 3 3 3 4 4 4 4 4 5 8 11 13 12 12 13 13 14 13 14 13
7 6 5 3 2 2 2 2 2 2 2 2 2 2 2 2 2 3 3 3 3 3 4 4 3 5 8 5 4 4 6 8 12 12 14 14 14 14 13 14 13 14 13
8 7 5 4 4 4 3 3 3 3 3 3 2 2 3 3 6 7 4 3 3 4 5 5 4 10 9 9 8 7 6 7 11 12 13 13 13 13 14 14 14 14 13
8 8 8 6 6 5 4 5 6 4 3 4 3 3 3 3 8 9 9 3 3 4 4 5 7 8 10 8 10 10 9 9 8 9 12 12 13 13 14 15 14 14 13
8 9 9 9 8 8 9 7 6 6 5 5 4 3 3 3 9 9 10 3 5 4 4 6 7 10 11 11 11 12 13 11 10 11 12 13 12 13 13 14 14 14 14
10 10 10 10 10 10 10 8 6 7 6 5 5 5 4 5 10 10 10 5 6 8 6 7 8 10 12 11 12 13 14 14 11 11 11 10 11 12 13 14 14 14 15
11 11 10 11 12 11 10 9 8 7 6 7 9 7 9 5 10 10 9 7 12 12 15 13 14 11 12 11 12 13 15 15 14 14 13 12 12 12 12 14 14 15 14
14 13 12 11 12 11 10 10 9 8 10 10 10 11 12 11 11 10 10 11 10 14 13 15 14 12 11 11 12 13 13 14 13 14 14 14 14 14 14 14 14 13 14
15 14 13 12 12 12 12 11 11 11 10 10 11 11 11 12 12 10 10 9 10 11 13 13 14 12 12 12 13 12 12 14 14 14 15 15 15 15 14 14 14 14 13
16 15 14 12 12 12 12 12 12 11 10 10 10 9 10 13 12 11 10 11 11 13 13 13 13 12 12 12 12 12 14 14 14 14 15 14 14 14 14 15 15 14 14
18 16 14 13 13 12 12 12 12 11 10 10 10 10 11 13 12 12 12 12 13 14 13 14 13 13 12 13 13 13 14 14 14 14 14 14 15 15 15 15 15 15 15
19 17 14 14 13 13 12 12 12 11 10 10 10 10 12 13 12 12 12 13 13 13 14 14 14 14 14 14 14 14 14 14 14 14 15 15 16 16 16 15 16 17 20
20 18 14 13 13 13 13 13 11 11 11 10 10 10 13 10 11 11 11 11 12 12 14 14 15 15 15 15 15 15 14 15 14 14 15 15 16 16 16 18 18 19 20
20 19 15 14 13 13 14 14 14 13 11 10 10 11 11 11 11 11 11 12 12 12 13 14 15 15 15 15 15 15 15 15 15 15 15 16 16 16 17 17 16 17 19
19 17 15 15 14 13 13 13 13 13 14 14 12 11 11 11 12 12 11 12 13 13 13 14 15 15 15 16 16 15 15 16 16 16 16 16 16 17 17 17 16 20 20
19 18 19 18 15 15 13 13 13 14 14 15 14 13 13 12 12 12 12 13 14 14 14 14 14 15 15 15 15 15 16 16 16 17 17 17 17 17 17 17 18 20 21
20 19 19 19 19 19 17 15 15 15 15 16 15 15 14 14 14 14 13 14 14 14 14 14 15 14 15 15 16 16 16 17 18 18 18 18 19 18 19 20 20 21 22
22 21 20 20 20 20 20 19 18 17 16 16 16 16 13 14 14 14 14 14 14 14 15 14 14 15 16 16 17 18 18 18 18 19 20 20 21 21 21 21 22 23 23
23 22 22 22 21 22 22 22 21 21 20 20 20 20 17 19 18 17 18 18 18 18 17 17 18 18 18 18 18 19 20 20 21 21 21 22 22 23 23 23 23 24 25
24 24 24 23 23 23 23 23 23 23 23 23 23 23 23 23 23 24 24 24 23 22 21 21 21 22 21 20 19 19 20 21 21 21 22 23 23 24 24 24 24 25 25
25 26 26 25 25 25 25 25 25 25 25 25 24 24 24 25 25 25 25 25 25 25 24 23 23 23 23 23 23 22 21 21 21 21 22 23 24 25 24 25 25 26 26
26 26 27 27 27 27 27 27 27 26 26 26 26 25 25 25 25 25 26 26 26 26 26 25 24 24 24 25 24 24 23 22 22 23 23 24 24 24 25 25 26 26 26
26 26 27 27 27 28 28 28 28 27 27 27 26 26 25 25 25 25 25 25 26 26 26 25 25 25 25 24 24 24 23 23 24 24 24 24 25 25 25 25 26 26 26